Location: ??????
(41.3164°N, 22.6615°E)
Time: 01:03:28
(UTC+00:00)

AAUSAT CUBESAT 2 - Visible Passes

Search period start: 29 June 2022 00:00
Search period end: 09 July 2022 00:00
Orbit: 565 x 583 km, 97.5° (Epoch: 28 June)

Date Brightness Start Highest point End Pass type
(mag) Time Alt. Az. Time Alt. Az. Time Alt. Az.
29 Jun ? 02:08:03 10° ENE 02:09:22 11° E 02:10:41 10° ESE visible
30 Jun ? 02:10:51 10° ENE 02:12:36 12° E 02:14:21 10° ESE visible
01 Jul ? 02:13:46 10° ENE 02:15:50 14° E 02:17:55 10° ESE visible
02 Jul ? 02:16:43 10° ENE 02:19:04 15° E 02:21:24 10° SE visible
03 Jul ? 02:19:42 10° NE 02:22:17 16° E 02:24:51 10° SE visible
04 Jul ? 02:22:44 10° NE 02:25:30 18° E 02:28:16 10° SE visible
05 Jul ? 02:25:46 10° NE 02:28:43 19° E 02:31:40 10° SE visible
